sat.trackr.live / text

‹ back to catalog

HULIANWANG DIGUI-91

NORAD 65999 · 2025-231E

PAYLOAD ACTIVE UNKNOWN

§ Identity

Operator
Country
PRC
Launch date
2025-10-16
Launch site
WSC
Launch vehicle
Mass (kg)
RCS (m²)

External: N2YO · Heavens-Above · Gunter

§ Orbital elements

Epoch: 2026-05-24T16:25:09.789312Z

Period
108.33 min
Inclination
50.0016°
Eccentricity
0.0000927
Mean motion
13.29326366 rev/d
Perigee alt
1,148.6 km
Apogee alt
1,150.0 km
Semi-major
7,527.4 km
B*
5.5894e-5
RAAN
259.9482°
Arg perigee
149.3089°
Mean anomaly
210.7837°
Rev number
2,976

§ Raw data

HULIANWANG DIGUI-911 65999U 25231E   26144.68414108 -.00000098  00000+0  55894-4 0  99922 65999  50.0016 259.9482 0000927 149.3089 210.7837 13.29326366 29766

JSON: /api/v1/satellites/65999 · /tle

For live sub-satellite position, see the globe view (requires WebGL).

§ Visibility from observer

Set your observer location to see the next 7 days of passes ≥ 10°. The values pass through the URL so the page stays shareable.

No JS? Fill the form by hand. The geolocation button needs JavaScript.